Regional Weather Roundup
Issued by NWS

Home | Current Version | Previous Version | Text Only | Print | Product List | Glossary On
Versions: 1 2 3 4 5 6 7 8 9 10 11 12 13 14 15 16 17 18 19 20 21 22 23 24 25 26 27 28 29 30 31 32 33 34 35 36 37 38 39 40 41 42 43 44 45 46 47 48 49 50
000
ASCA44 KEWX 020820
RWRMX

LATIN AMERICA AND CARIBBEAN REGIONAL WEATHER ROUNDUP
NATIONAL WEATHER SERVICE AUSTIN/SAN ANTONIO TX
300 AM CDT WED SEP 02 2015

NOTE: "FAIR" INDICATED FEW OR NO CLOUDS BELOW 12,000 FEET WITH NO
SIGNIFICANT WEATHER AND/OR OBSTRUCTIONS TO VISIBILITY.

BAJA CALIFORNIA

CITY           SKY/WX    TMP DP  RH WIND       PRES   REMARKS
TIJUANA        CLOUDY    68  57  68 W6        29.99R

NORTHWESTERN MEXICO

CITY           SKY/WX    TMP DP  RH WIND       PRES   REMARKS
HERMOSILLO     CLOUDY    86  79  79 CALM      29.94F HX  99

NORTHEASTERN MEXICO

CITY           SKY/WX    TMP DP  RH WIND       PRES   REMARKS
CHIHUAHUA      PTCLDY    63  41  45 SE6       30.14
MONTERREY        N/A    N/A N/A N/A MISG        N/A

WESTERN MEXICO

CITY           SKY/WX    TMP DP  RH WIND       PRES   REMARKS
GUADALAJARA    MOCLDY    64  61  88 S5        30.24F
MAZATLAN       MOCLDY    73  70  88 N9        29.91F
P. VALLARTA    CLOUDY    75  72  88 NE7       29.91F
ZACATECAS        N/A    N/A N/A N/A MISG        N/A

CENTRAL MEXICO

CITY           SKY/WX    TMP DP  RH WIND       PRES   REMARKS
MEXICO CITY    LGT RAIN  59  55  88 NW7       30.38S
QUERETARO      CLOUDY    59  57  94 S2        30.37S
S. LUIS POTOSI CLOUDY    64  57  77 CALM      30.30S
TOLUCA         MOCLDY    55  52  88 CALM      30.44F

SOUTHERN MEXICO

CITY           SKY/WX    TMP DP  RH WIND       PRES   REMARKS
ACAPULCO       PTCLDY    81  79  94 E3        29.91S
OAXACA         LGT RAIN  66  63  88 S3        30.26F
VERACRUZ         N/A    N/A N/A N/A MISG        N/A

YUCATAN PENINSULA

CITY           SKY/WX    TMP DP  RH WIND       PRES   REMARKS
CANCUN         MOCLDY    82  77  83 E8        29.99F HX  91
COZUMEL        PTCLDY    73  73 100 CALM      29.99F
MERIDA         MOCLDY    77  75  94 CALM      29.97F
TAPACHULA      PTCLDY    79  75  89 CALM      29.94F

CENTRAL AMERICA

CITY           SKY/WX    TMP DP  RH WIND       PRES   REMARKS

CARIBBEAN

CITY           SKY/WX    TMP DP  RH WIND       PRES   REMARKS
ARUBA          PTCLDY    82  77  83 E13       29.89  HX  91
SAN JUAN       PTCLDY    79  75  89 CALM      30.00S
ST. CROIX      PTCLDY    81  77  89 NE3       29.99
ST. MAARTEN    PTCLDY    82  77  83 E5        29.97F HX  91
ST. THOMAS     CLEAR     82  77  83 E5        29.98  HX  91

$$



USA.gov is the U.S. government's official web portal to all federal, state and local government web resources and services.